星链-31937 (STARLINK-31937 )

导读 | 星芒AI

STARLINK-31937 是 SpaceX Starlink 项目中的一颗低轨通信卫星,属于该星座的众多组网卫星之一。该卫星旨在提供全球范围内的高速互联网服务,特别服务于网络基础设施薄弱的地区。它运行在约 550 公里的轨道高度,采用先进的通信技术,支持高带宽和低延迟的数据传输。作为 Starlink 计划的一部分,STARLINK-31937 有助于提升全球互联网接入的覆盖范围和稳定性。

基本信息
目录编号:
59871
目录名称:
STARLINK-31937
国际标识:
2024-098P
轨道中心:
EARTH
卫星名称:
星链-31937
卫星全名:
星链-31937 (STARLINK-31937 )
卫星状态:
在轨 (已飞行528 天)
发射日期:
2024-05-24 UTC
国别 :
美国 (US)
星等 :
--
轨道信息
数据来源 国际轨道数据
星历时间: 2025-11-02T07:18:21+0800
1天前
查看轨道信息
半长轴: 6861.223km
偏心率: 0.0001531
轨道倾角: 43.007°
近地点辐角 286.222°
升交点赤经 272.332°
平近点角 73.846°
近地点: 482.037km
远地点: 484.139km
周期: 94.267分钟
每日圈数: 15.27568
详细信息
固有亮度:
5
最大亮度:
1.5
卫星平台:
Starlink v2.0 mini
覆盖范围:
全球
运营商:
太空探索技术公司
运营商所在国:
美国
制造商(研发单位):
太空探索技术公司
制造商所在国:
美国
使用方式:
暂无
卫星简介
星链(Starlink)计划是由太空探索技术公司(SpaceX)提出的一个巨型低轨卫星互联网星座项目,计划在2019年至2024年间在太空搭建由约1.2万颗卫星组成的“星链”网络,其中1584颗将部署在地球上空550千米处的近地轨道,并从2020年开始工作。该卫星仍在工作。
2D轨道图
3D轨道图
轨道高度分析图
轨道倾角分析图
轨道综合分析图
查看轨道综合分析图